EGGPEGNH

Guest
Details From EGGP - Liverpool John Lennon
To EGNH - Blackpool
Flight Number -
Tags Routegen Generated
Created
Modified
Stats Distance 35 nm / 65 km
Max Altitude 100 ft / 30 m
Waypoints 5
Social Downloads 10
Likes 0
Share

Download

Looking for another format? Having issues loading an existing format? Contact us
Advertisement - Login to hide

Notes

Departing runway 8 EGGP. Arriving runway 9 EGNH.

Route

EGGP +53.34_-002.71 +53.55_-002.80 +53.76_-002.89 EGNH

ID Type Via Altitude (ft/m) Position (lat/lon) Dist (leg/tot) Name
O EGGP APT - 0 / 0 53.33442 / -2.83269 - / 0 nm
+53.34_-002.71 LATLON - 100 / 30 53.33990 / -2.71185 4 / 4 nm
+53.55_-002.80 LATLON - 100 / 30 53.55241 / -2.80213 13 / 17 nm
+53.76_-002.89 LATLON - 100 / 30 53.76492 / -2.89242 13 / 30 nm
O EGNH APT - 0 / 0 53.77088 / -3.01444 4 / 35 nm

Altitude Profile

Advertisement - Login to hide

EGGP

Details ICAO EGGP (LPL)
Name Liverpool John Lennon
Region United Kingdom
Timezone Europe/London (UTC+1.0)
Stats Elevation 81 ft / 25 m (AMSL)
Location 53.333600° -2.849780°
Runways 1
Magnetic Variation 0.959° W

METAR

EGGP 281520Z 16019KT 9999 BKN030 OVC032 17/11 Q1011

Decode

TAF

TAF EGGP 281057Z 2812/2912 16012KT 9999 SCT020 TEMPO 2812/2821 18018G28KT PROB40 TEMPO 2812/2818 9000 -RA PROB30 TEMPO 2815/2904 4000 RA TEMPO 2818/2903 BKN012 PROB30 TEMPO 2822/2824 BKN008 PROB30 TEMPO 2907/2912 7000 SHRA BKN012

Decode

Departure Runways

ID Width Length Bearing (true/mag) Surface Threshold Overrun Markings Lighting
09 148 ft / 45 m 7,478 ft / 2,279 m 85.58° / 86.54° ASPHALT 194 ft / 59 m 0 ft / 0 m UK-PREC-APP CENTERLINE EDGE THRESHOLD CALVERT
27 148 ft / 45 m 7,478 ft / 2,279 m 265.61° / 266.57° ASPHALT 0 ft / 0 m 82 ft / 25 m UK-PREC-APP CENTERLINE EDGE THRESHOLD CALVERT TDZ

EGNH

Details ICAO EGNH (BLK)
Name Blackpool
Region United Kingdom
Timezone Europe/London (UTC+1.0)
Stats Elevation 34 ft / 10 m (AMSL)
Location 53.771700° -3.033150°
Runways 2
Magnetic Variation 1.087° W

METAR

EGNH 281520Z 18020KT 9999 -SHRA BKN032 18/11 Q1011

Decode

TAF

Not found

Destination Runways

ID Width Length Bearing (true/mag) Surface Threshold Overrun Markings Lighting
10 148 ft / 45 m 6,116 ft / 1,864 m 94.65° / 95.73° ASPHALT 0 ft / 0 m 0 ft / 0 m VISUAL EDGE THRESHOLD MALS
13 77 ft / 24 m 3,277 ft / 999 m 127.39° / 128.47° ASPHALT 492 ft / 150 m 0 ft / 0 m VISUAL
28 148 ft / 45 m 6,116 ft / 1,864 m 274.67° / 275.76° ASPHALT 0 ft / 0 m 0 ft / 0 m PREC-APP EDGE THRESHOLD MALS
31 77 ft / 24 m 3,277 ft / 999 m 307.40° / 308.48° ASPHALT 0 ft / 0 m 0 ft / 0 m VISUAL

Approach Navaids

Runway Type Ident Frequency Range Bearing (true/mag) Slope Elevation
28 LOC-ILS IBPL 108.15 MHz 18 nm / 33 km 274.66° / 275.75 ° - 34 ft / 10 m (AMSL)
28 GS IBPL 108.15 MHz 10 nm / 19 km 274.66° / 275.75 ° 3.00° 34 ft / 10 m (AMSL)

Popular Alternatives